Tracking 19827 objects as of 22-Aug-2019
HD Live streaming from Space Station
objects crossing your sky now

COSMOS 2251 DEB

Track COSMOS 2251 DEB now!
10-day predictions


NORAD ID: 34032
Int'l Code: 1993-036HT
Perigee: 709.2 km
Apogee: 782.3 km
Inclination: 74.0 °
Period: 99.6 minutes
Semi major axis: 7116 km
RCS: 0.032 m2 (small)
Launch date: June 16, 1993
Source: Commonwealth of Independent States (former USSR) (CIS)
Launch site: PLESETSK MISSILE AND SPACE COMPLEX (PKMTR)

Note: This is SATELLITE DEBRIS
aabbcc
Your satellite tracking list
Your tracking list is empty




NASA's NSSDC Master Catalog

Two Line Element Set (TLE):
1 34032U 93036HT  19233.82877376 +.00000629 +00000-0 +18129-3 0  9990
2 34032 074.0344 152.4803 0051349 069.4614 345.6034 14.46037042551659
Source of the keplerian elements: AFSPC